Knows.nl

Technical website intelligence, screenshots, and crawl history.

Full Index

Showing up to 100 newest rows before ID 5693938.

IDDomainStatusLast visitURL
5693926 www.sarahanews.net 200 2026-08-29 09:42:13 https://www.sarahanews.net/
5693924 exploreorvis.co.uk 200 2026-08-29 09:41:56 https://exploreorvis.co.uk/
5693920 filmetorrents.online 200 2026-08-29 09:41:54 https://filmetorrents.online/
5693917 es.tobesocial.net 200 2026-08-29 09:40:58 http://es.tobesocial.net/
5693916 ru.tobesocial.net 200 2026-08-29 09:40:57 http://ru.tobesocial.net/
5693915 it.tobesocial.net 200 2026-08-29 09:40:57 http://it.tobesocial.net/
5693914 fr.tobesocial.net 200 2026-08-29 09:40:56 http://fr.tobesocial.net/
5693913 tobesocial.net 200 2026-08-29 09:40:55 http://tobesocial.net/
5693907 dbcast.ru 200 2026-08-29 09:40:50 https://dbcast.ru/
5693906 33steps.ru 200 2026-08-29 09:40:48 http://33steps.ru/
5693894 www.nikkanberita.com 200 2026-08-29 09:37:51 http://www.nikkanberita.com/
5693893 www.uwashin.com 200 2026-08-29 09:37:48 http://www.uwashin.com/
5693892 plex.hu 200 2026-08-29 09:37:40 http://plex.hu/
5693887 www.keraleeyammasika.com 200 2026-08-29 09:37:27 https://www.keraleeyammasika.com/
5693878 shuk.diochan.com 200 2026-08-29 09:37:15 https://shuk.diochan.com/
5693876 www.vecchiochan.com 200 2026-08-29 09:37:14 https://www.vecchiochan.com/
5693875 alogs.space 200 2026-08-29 09:37:13 https://alogs.space/
5693874 www.niuchan.org 403 2026-08-29 09:37:11 https://www.niuchan.org/
5693873 itachan.org 403 2026-08-29 09:37:10 https://itachan.org/
5693862 www.tranny5.com 200 2026-08-29 09:35:10 https://www.tranny5.com/
5693853 www.configure.so 200 2026-08-29 09:35:06 https://www.configure.so/
5693843 www.spausdink-ilgiau.lt 200 2026-08-29 09:35:02 https://www.spausdink-ilgiau.lt/
5693837 www.eurochemfrance.fr 200 2026-08-29 09:33:59 https://www.eurochemfrance.fr/
5693836 www.eurochemiberia.com 200 2026-08-29 09:33:58 https://www.eurochemiberia.com/
5693835 www.eurochemagro.it 200 2026-08-29 09:33:58 https://www.eurochemagro.it/
5693834 eurochemiberia.com 200 2026-08-29 09:33:57 https://eurochemiberia.com/
5693833 eurochemgreece.gr 200 2026-08-29 09:33:56 https://eurochemgreece.gr/
5693832 www.eurochemdach.com 200 2026-08-29 09:33:55 https://www.eurochemdach.com/
5693803 flowguardwp.io 200 2026-08-29 09:29:36 https://flowguardwp.io/
5693802 bricksforge.io 200 2026-08-29 09:29:35 https://bricksforge.io/
5693798 propertyguide.lk 200 2026-08-29 09:29:33 https://propertyguide.lk/
5693797 motorguide.lk 200 2026-08-29 09:29:31 https://motorguide.lk/
5693794 tourismag.com 200 2026-08-29 09:29:05 https://tourismag.com/
5693792 www.rixosmagazine.com 200 2026-08-29 09:29:04 https://www.rixosmagazine.com/
5693785 www.bkdrluhar.com 200 2026-08-29 09:28:57 http://www.bkdrluhar.com/
5693783 www.babamurli.com 200 2026-08-29 09:28:56 https://www.babamurli.com/
5693782 www.babamurli.com 200 2026-08-29 09:28:49 http://www.babamurli.com/
5693780 187.188.85.103 200 2026-08-29 09:28:26 http://187.188.85.103/
5693779 cenidet.tecnm.mx 200 2026-08-29 09:28:24 https://cenidet.tecnm.mx/
5693778 www.cenidet.tecnm.mx 200 2026-08-29 09:28:22 http://www.cenidet.tecnm.mx/
5693773 freddystore.fi 200 2026-08-29 09:27:46 https://freddystore.fi/
5693772 freddy.hr 200 2026-08-29 09:27:45 https://freddy.hr/
5693771 www.livify.ca 200 2026-09-02 08:17:03 https://www.livify.ca/
5693770 freddystore.com.au 200 2026-08-29 09:27:42 https://freddystore.com.au/
5693768 cheryalberton.co.za 200 2026-08-29 09:27:34 https://cheryalberton.co.za/
5693767 omodajaecooalberton.co.za 200 2026-08-29 09:27:30 https://omodajaecooalberton.co.za/
5693764 mahindraalberton.co.za 200 2026-08-29 09:27:26 https://mahindraalberton.co.za/
5693763 royablog.ir 200 2026-09-02 01:46:28 http://royablog.ir/
5693757 seattlekokontaiko.org 200 2026-08-29 09:27:01 https://seattlekokontaiko.org/
5693756 bijac.org 200 2026-08-29 09:26:55 https://bijac.org/
5693751 www.alai.ro 200 2026-08-29 09:26:48 https://www.alai.ro/
5693750 www.lightpixel.ro 200 2026-08-29 09:26:47 https://www.lightpixel.ro/
5693747 vighor.ro 200 2026-08-29 09:26:46 https://vighor.ro/
5693746 www.debaser.it 200 2026-08-29 09:26:40 https://www.debaser.it/
5693745 game.debaser.it 200 2026-08-29 09:26:36 https://game.debaser.it/
5693743 tyrrrz.me 200 2026-08-29 09:26:34 https://tyrrrz.me/
5693730 www.inatoday.com 200 2026-08-29 09:25:47 http://www.inatoday.com/
5693729 www.thirteenhoursmovie.com 400 2026-08-29 09:25:44 http://www.thirteenhoursmovie.com/
5693724 www.asunnyafternoon.com 200 2026-08-29 09:25:38 https://www.asunnyafternoon.com/
5693719 freenet.org 200 2026-08-29 09:24:52 https://freenet.org/
5693717 www.hyphanet.org 200 2026-08-29 09:24:49 https://www.hyphanet.org/
5693710 www.pratompengar.se 200 2026-08-29 09:24:39 https://www.pratompengar.se/
5693708 en.visitsalondeprovence.wp.rc-prod.com 200 2026-08-29 09:24:38 https://en.visitsalondeprovence.wp.rc-prod.com/
5693704 reservation.visitsalondeprovence.com 200 2026-08-29 09:24:36 https://reservation.visitsalondeprovence.com/
5693698 amibroker.com 200 2026-08-29 09:24:12 http://amibroker.com/
5693697 www.amibroker.com 200 2026-08-29 09:24:11 http://www.amibroker.com/
5693688 toriavey.kit.com 200 2026-08-29 09:23:56 https://toriavey.kit.com/
5693670 mst-tv.net 200 2026-08-29 09:23:07 https://mst-tv.net/
5693668 zgw.com 403 2026-08-29 09:33:11 http://zgw.com/
5693663 www.trafic-metropole-rouen.fr 200 2026-08-29 09:22:42 https://www.trafic-metropole-rouen.fr/
5693662 www.inforoute-nordouest.fr 200 2026-08-29 09:22:40 https://www.inforoute-nordouest.fr/
5693655 connectlearning.vertiv.com 200 2026-08-29 09:21:26 https://connectlearning.vertiv.com/
5693654 purgerite.com 200 2026-08-29 09:21:24 https://purgerite.com/
5693653 investors.vertiv.com 200 2026-08-29 09:21:24 https://investors.vertiv.com/
5693652 customerportal.vertiv.com 200 2026-08-29 09:21:22 https://customerportal.vertiv.com/
5693651 partners.vertiv.com 200 2026-08-29 09:21:19 https://partners.vertiv.com/
5693644 milk-craftcream.com 200 2026-08-29 09:19:18 https://milk-craftcream.com/
5693642 coffeecigars.online 404 2026-08-29 09:19:12 https://coffeecigars.online/
5693641 www.ketawa.com 200 2026-08-29 09:19:11 http://www.ketawa.com/
5693639 www.ssyoutube.com 200 2026-08-29 09:19:08 https://www.ssyoutube.com/
5693635 www.alaturka.info 200 2026-08-29 09:18:01 https://www.alaturka.info/
5693633 marketing.bizol.com 404 2026-08-29 09:17:59 https://marketing.bizol.com/
5693631 bizol.lubricantadvisor.com 200 2026-08-29 09:17:59 https://bizol.lubricantadvisor.com/
5693622 www.einsurance-online.com 200 2026-08-29 09:16:51 https://www.einsurance-online.com/
5693608 pd-measurement.fittingbox.com 200 2026-08-29 09:14:28 https://pd-measurement.fittingbox.com/
5693607 www.fashioneyewear.com 200 2026-08-29 09:14:25 https://www.fashioneyewear.com/
5693601 rabie-elkheir.net 200 2026-08-29 09:14:15 https://rabie-elkheir.net/
5693596 www.myjsme.scuk.cz 200 2026-08-29 09:14:12 https://www.myjsme.scuk.cz/
5693595 napoveda.scuk.cz 200 2026-08-29 09:14:04 https://napoveda.scuk.cz/
5693591 greaterkingstonchamberofcommerce.growthzoneapp.com 200 2026-08-29 09:13:31 https://greaterkingstonchamberofcommerce.growthzoneapp.com/
5693581 www.elementive.com 200 2026-08-29 09:12:53 https://www.elementive.com/
5693580 www.matthewedgar.net 200 2026-08-29 09:12:51 https://www.matthewedgar.net/
5693570 www.poweo.be 200 2026-08-29 09:10:53 https://www.poweo.be/
5693558 hop.earth 200 2026-08-29 09:09:30 https://hop.earth/
5693555 www.extrehost.com 200 2026-08-29 09:09:27 https://www.extrehost.com/
5693544 disneyparks.com 200 2026-08-29 09:09:03 http://disneyparks.com/
5693538 www.top100.gr 200 2026-08-29 09:08:59 http://www.top100.gr/
5693530 www.tinyventures.io 200 2026-08-29 09:08:36 https://www.tinyventures.io/
5693525 actual-bag-of-salad.tumblr.com 200 2026-08-29 09:08:32 https://actual-bag-of-salad.tumblr.com/
5693512 gtfs.org 200 2026-08-29 09:08:01 https://gtfs.org/